Location: ??
(34.6287°N, 135.9024°E)
Time: 02:50:28
(UTC+00:00)

Daily predictions for brighter satellites

Satellite Brightness Start Highest point End
(mag) Time Altitude Azimuth Time Altitude Azimuth Time Altitude Azimuth
Meteor 2-11 Rocket 4.5 09:09:10 10° S 09:15:15 70° E 09:21:23 10° NNE
H-2A R/B 3.0 09:17:07 10° ESE 09:21:06 25° ENE 09:25:09 10° NNE
Cosmos 1603 3.8 09:16:01 10° NNW 09:21:36 60° ENE 09:27:06 10° SSE
USA 116 3.9 09:18:52 10° NNE 09:22:27 47° E 09:26:29 10° S
Okean 2 Rocket 4.1 09:19:09 10° SE 09:22:49 25° E 09:26:29 10° NE
USA 234 4.4 09:19:14 10° ENE 09:24:02 21° ESE 09:28:48 10° S
Meteor 1-21 4.3 09:25:16 10° N 09:30:46 57° E 09:36:15 10° SSE
Cosmos 2233 Rocket 4.4 09:24:51 10° SSW 09:31:04 70° W 09:37:15 10° N
YAOGAN 1 2.6 09:29:47 10° SSE 09:34:01 61° ENE 09:38:18 10° N
Okean-O 2.6 09:30:13 10° SSE 09:34:37 89° E 09:39:05 10° NNW
ISS -1.4 09:32:33 10° W 09:35:17 23° NNW 09:38:01 10° NNE
Milstar 3 Cent rocket 3.7 09:28:53 10° SW 09:36:27 32° S 09:40:46 12° ESE
Shenzhou-11 Module 3.1 09:40:21 10° S 09:41:43 15° SE 09:41:47 15° SE
DELTA 2 R/B (1) 3.6 09:43:03 10° WNW 09:48:37 88° SSW 09:52:59 17° ESE
Cosmos 2034 Rocket 4.4 09:43:30 10° SSE 09:49:20 40° E 09:55:10 10° NNE
CZ-2D R/B 4.2 09:45:38 10° S 09:49:24 51° W 09:53:12 10° NNW
Cosmos 1025 Rocket 3.8 09:49:57 10° NNE 09:53:50 30° ENE 09:56:33 16° SE
ARGOS 3.5 09:49:43 10° SE 09:54:42 41° ENE 09:59:43 10° N
ATLAS 2AS CENTAUR R/B 3.7 09:50:14 10° SSE 09:56:47 30° ESE 10:03:26 10° NE
CZ-2C R/B 0.8 09:53:21 10° W 09:57:03 84° N 09:58:50 27° E
Cosmos 2298 Rocket 4.0 09:53:28 10° S 09:58:45 71° ESE 10:04:04 10° NNE
CZ-2C R/B 3.1 09:55:11 10° SSE 10:00:20 86° ENE 10:05:50 10° N
MOS 1 Rocket 2.9 09:56:36 10° NNE 10:00:58 76° ESE 10:05:12 10° S
Cosmos 2084 Rocket 4.0 09:57:57 10° NW 10:02:22 61° WSW 10:06:51 10° SSE
CZ-2C R/B 3.1 09:59:19 10° NNE 10:04:30 39° E 10:09:42 10° SSE
Cosmos 2151 Rocket 3.6 10:00:13 10° S 10:04:32 53° E 10:08:54 10° NNE
Cosmos 372 Rocket 4.5 09:59:41 10° SSW 10:04:52 65° WNW 10:10:05 10° N
CENTAUR R/B 4.2 09:59:30 10° N 10:06:13 27° NE 10:10:14 19° E
GOES 2 Rocket 3.9 10:05:33 10° SW 10:09:17 32° S 10:10:40 26° SE
STPSAT 2 (USA 217) 4.5 10:07:13 10° NNW 10:11:42 70° ENE 10:14:41 21° SSE
SJ-11-01 4.3 10:10:08 10° S 10:14:51 82° WSW 10:19:35 10° NNW
HJ-1C 3.7 10:13:38 10° S 10:16:52 65° WSW 10:20:09 10° NNW
Cosmos 1844 3.6 10:14:01 10° SSW 10:19:42 72° ESE 10:25:21 10° NNE
Cosmos 1867 3.5 10:16:41 10° NNW 10:22:10 82° ENE 10:25:20 26° SSE
Cosmos 1844 Rocket 2.7 10:17:34 10° SSW 10:23:07 84° WNW 10:28:44 10° NNE
USA 238 DEB 4.4 10:16:54 10° NNW 10:23:44 41° NE 10:26:37 30° E
USA 238 4.4 10:17:01 10° NNW 10:23:50 41° NE 10:26:41 30° E
Cosmos 1674 4.4 10:21:22 10° NNE 10:23:02 20° NE 10:23:02 20° NE
Cosmos 2150 Rocket 4.4 10:22:28 10° SSW 10:27:46 66° WNW 10:33:10 10° NNE
Cosmos 1125 Rocket 3.4 10:25:31 10° SSW 10:30:49 85° ESE 10:36:10 10° NNE
Cosmos 2285 Rocket 3.9 10:24:53 10° S 10:31:07 69° ESE 10:37:24 10° NNE
Exosat Rocket 3.6 10:26:26 10° SSW 10:32:35 80° ESE 10:37:39 10° NNE
MetOp-A 4.4 10:34:31 43° E 10:35:13 46° ENE 10:40:18 10° N
Resurs 01 Rocket 4.0 10:44:41 11° NNE 10:44:41 11° NNE 10:44:58 10° NNE
DMSP B5D2-2 3.9 10:38:38 10° NNE 10:43:56 79° ESE 10:49:12 10° S
MOS 1 4.2 10:44:23 48° SE 10:45:48 65° ENE 10:51:27 10° N
Cosmos 1092 Rocket 4.0 10:42:02 10° N 10:48:02 52° E 10:48:28 51° E
NOSS 3-2 (A) 4.1 10:42:52 10° NNW 10:50:40 68° ENE 10:53:38 43° ESE
USA 186 3.7 10:52:24 26° NNW 10:52:24 26° NNW 10:53:58 10° NNW
Centaur D-1AR AC-40 3.9 10:44:49 10° WSW 10:54:09 24° SSW 10:55:53 21° S
Cosmos 468 4.4 10:49:03 10° NNW 10:54:25 88° ENE 10:55:12 66° SSE
Okean 1 Rocket 3.4 10:58:50 58° N 10:58:50 58° N 11:02:29 10° N
H-2A R/B 3.7 10:56:03 10° SSW 11:00:21 30° W 11:04:45 10° NW
Cosmos 1048 Rocket 4.0 10:59:04 10° NNW 11:04:25 79° WSW 11:04:54 72° SSW
SJ-6B 4.4 11:07:01 28° NNW 11:07:01 28° NNW 11:08:57 10° NNW
USA 234 3.2 11:02:07 17° NE 11:07:23 83° NW 11:13:56 10° SW
Ariane Rocket 3.7 11:17:59 45° SW 11:18:43 49° W 11:23:38 10° NNW
NOSS 3-4 (A) 3.7 11:19:02 10° SW 11:24:48 61° NW 11:30:52 10° NNE
NOSS 3-4 (C) 3.7 11:19:09 10° SW 11:24:54 61° WNW 11:30:59 10° NNE
NOSS 3-2 (C) 4.0 11:18:47 10° NNW 11:26:39 72° ENE 11:27:07 71° E
ATLAS 2AS CENTAUR R/B 3.5 11:39:40 10° SW 11:47:23 56° NW 11:55:10 10° NNE
